Showing default

HULIANWANG DIGUI-18, 62978

Orbit data source: Space-Track

HULIANWANG DIGUI-18, 62978 is a payload satellite owned by Zhongguo Xingwang (CN) in LEO that was launched on Tue, 11 Feb 2025 UTC via a CHANG ZHENG 8A launch vehicle from the Wenchang Satellite Launch Center (WSC). Payload-class satellites include a variety of spacecraft equipped with specific instruments for various scientific and technological missions. These include communications satellites like Starlink; space stations such as the ISS; scientific satellites like the Hubble; Earth observation satellites from companies like Planet Labs, Umbra, and HawkEye 360; GPS; miniature CubeSats for education and research; and military/defense satellites.

Loading next visibility...
Identifier
62978, 2025-030H
Orbit
LEO
Country
Flag of CNCN / PRC
Related business
Manufacturer
CAST
Mission
Operational Civil Communications
Bus & Motor
XINGWANG C, Unknown motor
Mass
~700 kg wet, ~700 kg dry
Launch date (UTC)
2025-02-11 (1 year ago)
Launch vehicle
CHANG ZHENG 8A
Launch site
Wenchang Satellite Launch Center (WSC)
Object type
Payload
Rocket body
Debris
Shape & HBR
Box + 2 Pan, 2.1 m
Radar Cross Section
5.935 m², Large (>1 m²)

Expand to show TLE details & history
Last TLE update: 11 hours ago

TLE from 11 hours ago
0 HULIANWANG DIGUI-18
1 62978U 25030H   26104.87566357 -.00000080  00000-0  95333-4 0  9998
2 62978  50.0050 102.5856 0001222 305.8440  54.2319 13.29325813 57443
Epoch: 2026-04-14T21:00Z
TLE epoch observation values (Epoch: 2026-04-14T21:00:57.332Z)
Latitude
0.00002°
Longitude
-55.6989°
Altitude
1,149.276 km
Speed
7.28 km/s
True Right ascension
06h 50m 20s
True Declination
0° 00' 00"
Sunlit
Object was in daylight at epoch
Visualization orbit readout
Latitude
Unknown
Longitude
Unknown
Altitude
Unknown
Speed
Unknown
Apparent Right ascension
Unknown
Apparent Declination
Unknown
Sunlit
N/A
Visualization observer readout
Local Sidereal Time
14:28:58
Azimuth
Unknown
Elevation
Unknown
Doppler factor
Unknown
Orbital elements
Apogee altitude
1,150.932 km
Perigee altitude
1,149.092 km
Semi-major axis
7,528.149 km
Eccentricity
0.00012
Inclination
50.005°
RAAN
102.5856°
Arg. of periapsis
305.844°
True anomaly
54.24326°
Mean anomaly
54.2319°
Eccentric anomaly
54.23758°
Mean motion
3.32285 °/min
Orbital period
108.34 mins
BSTAR
0.000095333
Loading maneuver chart data...
Computing Atmospheric mass density...
Loading historical data...
Loading historical data...
Loading historical data...
Loading historical data...
Loading historical data...
Loading historical data...
Loading historical data...

Documentation

Showing up to 5 results
|